{"data":{"norad_id":67608,"intl_designator":"2026-018V","name":"STARLINK-36411","alt_names":[],"object_type":"PAYLOAD","status":"ACTIVE","operator":null,"country":"US","launch_date":"2026-01-29","launch_site_code":"AFWTR","launch_vehicle":null,"mission":null,"orbit_class":"UNKNOWN","rcs_meters":null,"size_class":null,"mass_kg":null,"dimensions":null,"purposes":["comms"],"wikipedia_slug":null,"has_3d_model":false,"image_url":null,"decayed_at":null,"tle_current":{"epoch":"2026-05-25T02:43:27.093792Z","epoch_age_seconds":62703,"freshness":"FRESH","line1":"1 67608U 26018V   26145.11350803  .00032047  00000+0  99146-3 0  9990","line2":"2 67608  97.2842 210.2027 0000871 105.0794 255.0545 15.33423238 19041","mean_motion":15.33423238,"eccentricity":8.71e-5,"inclination_deg":97.2842,"raan_deg":210.2027,"arg_perigee_deg":105.0794,"mean_anomaly_deg":255.0545,"bstar":0.00099146,"rev_number":1904,"period_min":93.907537352711,"perigee_km":465.01183346216,"apogee_km":466.20401382786,"semimajor_km":6843.744923645,"source":"CELESTRAK","updated_at":"2026-05-25T13:38:21.647412Z"}}}